Contact Us:
Email: info@sawbill.com
Phone: (218)663-7150
Fax: (218)663-7980
Mail: 4620 Sawbill Trail
Box 2129
Tofte, MN 55615


Powered by
Movable Type 3.15
 
Sawbill Weather History Archives: January 2015
Current Sawbill Weather History | « December 2014 | February 2015 »


Date

High
Temperature

Low
Temperature

Barometric
Pressure

Relative
Humidity 7AM

9 AM
Temperature

Moisture

Snow

1/31/15 11 -13 30.28 74% -12 0
1/30/15 14 0 30.14 74% 11 .08" 1"
1/29/15 19 -2 30.36 55% 0 Trace Trace
1/28/15 29 25 30.18 84% 20 0
1/27/15 27 22 30.06 89% 25 0
1/26/15 23 19 30.10 80% 22 .08" 1"
1/25/15 19 5 29.84 84% 5 .24" 3"
1/24/15 28 0 30.04 54% 5 Trace Trace
1/23/15 24 8 29.89 65% 8 Trace Trace
1/22/15 26 19 30.02 78% 19 Trace Trace
1/21/15 23 7 30.18 67% 8 0
1/20/15 22 17 30.08 82% 22 Trace Trace
1/19/15 19 13 30.02 75% 17 0
1/18/15 24 8 30.00 64% 13 Trace Trace
1/17/15 26 20 29.82 85% 24 .25" 2.5"
1/16/15 20 -8 29.72 92% 20 Trace Trace
1/15/15 27 -12 30.10 56% -8 Trace Trace
1/14/15 24 11 29.86 91% 24 .06" .5"
1/13/15 14 -15 30.12 45% 11 Trace Trace
1/12/15 -2 -18 30.42 63% -16 0
1/11/15 0 -13 30.40 63% -13 0
1/10/15 5 -17 30.12 63% -7 0
1/9/15 -3 -11 29.98 63% -8 0
1/8/15 5 -2 30.00 63% -11 .14" 1"
1/7/15 -4 -21 30.04 54% -4 0
1/6/15 2 -22 30.02 54% -21 0
1/5/15 -4 -19 30.06 63% -5 0
1/4/15 -12 -23 30.18 63% -19 0
1/3/15 25 -19 30.12 63% -19 .22" 2.5"
1/2/15 22 -1 29.98 86% 22 .31" 3"
1/1/15 11 -4 30.10 65% 1 0
 


Home I Trip Planning I Rentals and Outfitting I Reservations I Campgrounds I Sawbill Store I Sawbill News I Contact

© 1997 - 2017, Sawbill Canoe Outfitters, Inc. I Privacy Policy